When you browse on this site, cookies collect data to enhance your experience and personalize the content and advertising you see.
Visit our Privacy Policy to learn more. By continuing to use the site, you agree to this use of cookies and data.
  • In Netherlands
  • List of Countries
  • For 7 days
  • Water Temperature
  • Satellite Maps
  • Weather Map
  • Weather Widgets
  • user-avatar
    Login

    Hourly Weather Łęczyca

    Today, 25 April, Thursday

    Time Temperature Precipitation Wind Pressure Humidity
    00:00 +15°C° 0 mm 5 mps 751 mmHg 73%
    01:00 +14°C° 0 mm 5 mps 751 mmHg 72%
    02:00 +14°C° 0 mm 5 mps 751 mmHg 73%
    03:00 +14°C° 0 mm 5 mps 751 mmHg 75%
    04:00 +13°C° 0 mm 5 mps 751 mmHg 77%
    05:00 +14°C° 0 mm 5 mps 751 mmHg 75%
    06:00 +16°C° 0 mm 5 mps 751 mmHg 72%
    07:00 +17°C° 0 mm 6 mps 751 mmHg 70%
    08:00 +19°C° 0 mm 5 mps 751 mmHg 65%
    09:00 +21°C° 0 mm 5 mps 751 mmHg 60%
    10:00 +22°C° 0 mm 5 mps 751 mmHg 56%
    11:00 +23°C° 0 mm 5 mps 751 mmHg 54%
    12:00 +23°C° 0 mm 4 mps 751 mmHg 52%
    13:00 +25°C° 0 mm 4 mps 751 mmHg 50%
    14:00 +25°C° 0 mm 3 mps 751 mmHg 50%
    15:00 +25°C° 0 mm 3 mps 750 mmHg 51%
    16:00 +25°C° 0 mm 2 mps 750 mmHg 51%
    17:00 +23°C° 0 mm 2 mps 750 mmHg 56%
    18:00 +22°C° 0 mm 1 mps 750 mmHg 60%
    19:00 +20°C° 0 mm 1 mps 750 mmHg 65%
    20:00 +20°C° 0.1 mm 1 mps 750 mmHg 67%
    21:00 +18°C° 0.1 mm 2 mps 750 mmHg 70%
    22:00 +18°C° 0.1 mm 2 mps 751 mmHg 72%
    23:00 +17°C° 0 mm 2 mps 750 mmHg 74%

    Tomorrow, 26 April, Friday

    Time Temperature Precipitation Wind Pressure Humidity
    00:00 +17°C° 0 mm 2 mps 750 mmHg 76%
    01:00 +16°C° 0 mm 2 mps 750 mmHg 78%
    02:00 +16°C° 0 mm 2 mps 750 mmHg 78%
    03:00 +15°C° 0 mm 2 mps 750 mmHg 79%
    04:00 +14°C° 0 mm 3 mps 749 mmHg 79%
    05:00 +16°C° 0 mm 3 mps 749 mmHg 74%
    06:00 +18°C° 0 mm 4 mps 749 mmHg 70%
    07:00 +19°C° 0 mm 4 mps 748 mmHg 66%
    08:00 +20°C° 0 mm 4 mps 748 mmHg 61%
    09:00 +22°C° 0 mm 4 mps 748 mmHg 55%
    10:00 +25°C° 0 mm 5 mps 747 mmHg 50%
    11:00 +25°C° 0 mm 5 mps 747 mmHg 48%
    12:00 +26°C° 0 mm 4 mps 747 mmHg 46%
    13:00 +27°C° 0 mm 4 mps 746 mmHg 44%
    14:00 +27°C° 0 mm 4 mps 746 mmHg 44%
    15:00 +27°C° 0 mm 4 mps 746 mmHg 44%
    16:00 +27°C° 0 mm 4 mps 745 mmHg 44%
    17:00 +25°C° 0 mm 3 mps 745 mmHg 50%
    18:00 +23°C° 0 mm 2 mps 745 mmHg 55%
    19:00 +21°C° 0 mm 2 mps 745 mmHg 61%
    20:00 +20°C° 0 mm 2 mps 745 mmHg 62%
    21:00 +19°C° 0 mm 2 mps 745 mmHg 64%
    22:00 +19°C° 0 mm 2 mps 745 mmHg 65%
    23:00 +18°C° 0 mm 3 mps 745 mmHg 70%

    Day after tomorrow, 27 April, Saturday

    Time Temperature Precipitation Wind Pressure Humidity
    00:00 +17°C° 0 mm 4 mps 745 mmHg 75%
    01:00 +16°C° 0 mm 5 mps 745 mmHg 80%
    02:00 +15°C° 0.1 mm 6 mps 746 mmHg 83%
    03:00 +15°C° 0.1 mm 6 mps 746 mmHg 86%
    04:00 +14°C° 0.1 mm 7 mps 747 mmHg 89%
    05:00 +14°C° 0.2 mm 7 mps 747 mmHg 88%
    06:00 +12°C° 0.2 mm 7 mps 748 mmHg 88%
    07:00 +11°C° 0.2 mm 6 mps 748 mmHg 87%
    08:00 +11°C° 0 mm 6 mps 748 mmHg 85%
    09:00 +12°C° 0 mm 7 mps 749 mmHg 82%
    10:00 +12°C° 0 mm 7 mps 749 mmHg 80%
    11:00 +14°C° 0 mm 6 mps 749 mmHg 77%
    12:00 +14°C° 0 mm 5 mps 749 mmHg 74%
    13:00 +15°C° 0 mm 5 mps 750 mmHg 71%
    14:00 +15°C° 0 mm 5 mps 749 mmHg 69%
    15:00 +15°C° 0 mm 4 mps 749 mmHg 67%
    16:00 +15°C° 0 mm 4 mps 749 mmHg 64%
    17:00 +16°C° 0 mm 3 mps 749 mmHg 68%
    18:00 +15°C° 0 mm 2 mps 749 mmHg 71%
    19:00 +14°C° 0 mm 1 mps 749 mmHg 75%
    20:00 +13°C° 0 mm 1 mps 749 mmHg 75%
    21:00 +13°C° 0 mm 1 mps 750 mmHg 76%
    22:00 +13°C° 0 mm 1 mps 750 mmHg 77%
    23:00 +13°C° 0.1 mm 1 mps 750 mmHg 78%

    28 April, Sunday

    Time Temperature Precipitation Wind Pressure Humidity
    00:00 +13°C° 0.1 mm 1 mps 750 mmHg 80%
    01:00 +12°C° 0.1 mm 1 mps 750 mmHg 81%
    02:00 +12°C° 0.1 mm 2 mps 750 mmHg 82%
    03:00 +12°C° 0.1 mm 2 mps 750 mmHg 83%
    04:00 +12°C° 0.1 mm 2 mps 750 mmHg 84%
    05:00 +12°C° 0.1 mm 2 mps 751 mmHg 83%
    06:00 +12°C° 0.1 mm 2 mps 751 mmHg 83%
    07:00 +12°C° 0.1 mm 3 mps 751 mmHg 82%
    08:00 +12°C° 0.1 mm 3 mps 752 mmHg 80%
    09:00 +13°C° 0.1 mm 4 mps 752 mmHg 78%
    10:00 +14°C° 0.1 mm 4 mps 752 mmHg 76%
    11:00 +14°C° 0.4 mm 4 mps 752 mmHg 75%
    12:00 +14°C° 0.4 mm 4 mps 752 mmHg 73%
    13:00 +14°C° 0.4 mm 4 mps 752 mmHg 72%
    14:00 +14°C° 0.8 mm 4 mps 752 mmHg 76%
    15:00 +13°C° 0.8 mm 4 mps 752 mmHg 79%
    16:00 +13°C° 0.8 mm 3 mps 752 mmHg 83%
    17:00 +12°C° 0.6 mm 3 mps 752 mmHg 85%
    18:00 +11°C° 0.6 mm 4 mps 752 mmHg 86%
    19:00 +10°C° 0.6 mm 4 mps 752 mmHg 88%
    20:00 +10°C° 0.2 mm 4 mps 752 mmHg 88%
    21:00 +10°C° 0.2 mm 4 mps 752 mmHg 89%
    22:00 +10°C° 0.2 mm 4 mps 752 mmHg 89%
    23:00 +8°C° 0.2 mm 4 mps 752 mmHg 90%

    29 April, Monday

    Time Temperature Precipitation Wind Pressure Humidity
    00:00 +8°C° 0.2 mm 4 mps 752 mmHg 91%
    01:00 +8°C° 0.2 mm 4 mps 752 mmHg 93%
    02:00 +8°C° 0.6 mm 4 mps 751 mmHg 93%
    03:00 +8°C° 0.6 mm 4 mps 751 mmHg 94%
    04:00 +8°C° 0.6 mm 4 mps 751 mmHg 95%
    05:00 +8°C° 2 mm 4 mps 751 mmHg 95%
    06:00 +9°C° 2 mm 3 mps 751 mmHg 95%
    07:00 +10°C° 2 mm 3 mps 751 mmHg 96%
    08:00 +10°C° 0.6 mm 4 mps 751 mmHg 94%
    09:00 +9°C° 0.6 mm 5 mps 751 mmHg 93%
    10:00 +9°C° 0.6 mm 5 mps 752 mmHg 91%
    11:00 +9°C° 0.5 mm 5 mps 752 mmHg 91%
    12:00 +8°C° 0.5 mm 6 mps 752 mmHg 91%
    13:00 +8°C° 0.5 mm 6 mps 752 mmHg 90%
    14:00 +8°C° 0.9 mm 5 mps 751 mmHg 89%
    15:00 +8°C° 0.9 mm 5 mps 751 mmHg 88%
    16:00 +8°C° 0.9 mm 4 mps 751 mmHg 87%
    17:00 +10°C° 0 mm 3 mps 752 mmHg 87%
    18:00 +10°C° 0 mm 3 mps 752 mmHg 87%
    19:00 +10°C° 0 mm 2 mps 752 mmHg 88%
    20:00 +9°C° 0 mm 3 mps 752 mmHg 88%
    21:00 +8°C° 0 mm 3 mps 753 mmHg 88%
    22:00 +8°C° 0 mm 3 mps 753 mmHg 89%
    23:00 +7°C° 0 mm 3 mps 753 mmHg 87%

    30 April, Tuesday

    Time Temperature Precipitation Wind Pressure Humidity
    00:00 +5°C° 0 mm 4 mps 753 mmHg 85%
    01:00 +5°C° 0 mm 4 mps 753 mmHg 82%
    02:00 +4°C° 0 mm 4 mps 753 mmHg 83%
    03:00 +4°C° 0 mm 4 mps 753 mmHg 84%
    04:00 +3°C° 0 mm 4 mps 753 mmHg 85%
    05:00 +4°C° 0 mm 4 mps 753 mmHg 81%
    06:00 +5°C° 0 mm 5 mps 753 mmHg 78%
    07:00 +6°C° 0 mm 5 mps 754 mmHg 75%
    08:00 +8°C° 0 mm 6 mps 754 mmHg 68%
    09:00 +9°C° 0 mm 6 mps 754 mmHg 61%
    10:00 +11°C° 0 mm 6 mps 754 mmHg 54%
    11:00 +11°C° 0 mm 6 mps 753 mmHg 53%
    12:00 +13°C° 0 mm 6 mps 753 mmHg 51%
    13:00 +14°C° 0 mm 6 mps 753 mmHg 49%
    14:00 +14°C° 0 mm 6 mps 753 mmHg 51%
    15:00 +14°C° 0 mm 5 mps 753 mmHg 52%
    16:00 +13°C° 0 mm 5 mps 753 mmHg 53%
    17:00 +13°C° 0 mm 4 mps 753 mmHg 56%
    18:00 +12°C° 0 mm 4 mps 753 mmHg 60%
    19:00 +11°C° 0 mm 3 mps 753 mmHg 63%
    20:00 +10°C° 0 mm 3 mps 753 mmHg 67%
    21:00 +8°C° 0 mm 3 mps 753 mmHg 71%
    22:00 +7°C° 0 mm 3 mps 753 mmHg 75%
    23:00 +7°C° 0 mm 3 mps 753 mmHg 75%
    Show more